Regional Weather Roundup
Issued by NWS Little Rock, AR

Home | Current Version | Previous Version | Text Only | Print | Product List | Glossary On
Versions: 1 2 3 4 5 6 7 8 9 10 11 12 13 14 15 16 17 18 19 20 21 22 23 24 25 26 27 28 29 30 31 32
000
ASUS44 KLZK 291305
RWRLZK

WEATHER ROUNDUP FOR ARKANSAS
NATIONAL WEATHER SERVICE LITTLE ROCK AR
800 AM CDT THU JUN 29 2017

NOTE: "FAIR" INDICATES FEW OR NO CLOUDS BELOW 12,000 FEET WITH NO
SIGNIFICANT WEATHER AND/OR OBSTRUCTIONS TO VISIBILITY.

ARZ001-003-010-029-291400-
NORTHWEST ARKANSAS

CITY           SKY/WX    TMP DP  RH WIND       PRES   REMARKS
FAYETTEVILLE   SUNNY     74  68  81 S7        29.91S
FORT SMITH     SUNNY     77  71  82 SE6       29.89S
HARRISON       SUNNY     73  68  84 SE6       29.95S
BENTONVILLE    SUNNY     75  66  73 S5        29.93R
ROGERS         MOSUNNY   75  68  78 S13       29.93S
SILOAM SPGS    SUNNY     75  66  73 S7        29.91R
HIGHFILL       SUNNY     76  69  79 S7        29.92R
SPRINGDALE     MOSUNNY   75  68  78 S9        29.94S
$$

ARZ004-005-016-291400-
NORTH CENTRAL ARKANSAS

CITY           SKY/WX    TMP DP  RH WIND       PRES   REMARKS
BATESVILLE     CLOUDY    73  70  88 S8        29.98R
FLIPPIN        SUNNY     73  64  73 CALM      29.93R
MTN HOME       SUNNY     72  67  84 S9        29.95R
$$

ARZ040-041-291400-
WEST CENTRAL ARKANSAS

CITY           SKY/WX    TMP DP  RH WIND       PRES   REMARKS
MENA           CLOUDY    75  73  94 S5        29.95R
$$

ARZ009-017-025-026-028-291400-
NORTHEAST ARKANSAS

CITY           SKY/WX    TMP DP  RH WIND       PRES   REMARKS
CORNING        PTSUNNY   75  75 100 S7        29.99R
JONESBORO      MOSUNNY   75  72  90 S8        29.98S
WALNUT RIDGE   CLOUDY    75  70  83 S9        29.98S
BLYTHEVILLE    SUNNY     76  71  85 S10       30.01
$$

ARZ022-023-033-042-044-291400-
CENTRAL ARKANSAS

CITY           SKY/WX    TMP DP  RH WIND       PRES   REMARKS
LITTLE ROCK    CLOUDY    73  72  96 S9        29.96S
N LITTLE ROCK    N/A     73  70  90 S9G20     29.94S
JACKSONVILLE   CLOUDY    74  72  91 S12G20    29.95S
CONWAY           N/A     75  72  88 S12       29.93S
SEARCY         CLOUDY    75  73  93 S13       29.97F
HOT SPRINGS    CLOUDY    73  71  93 S7        29.95S
RUSSELLVILLE   SUNNY     76  70  82 SE3       29.93R
CLINTON        CLOUDY    72  70  94 CALM      29.96S
$$

ARZ036-291400-
EAST ARKANSAS

CITY           SKY/WX    TMP DP  RH WIND       PRES   REMARKS
WEST MEMPHIS   CLOUDY    75  72  90 S14       29.99S
$$

ARZ050-053-066-070-073-291400-
SOUTHWEST ARKANSAS

CITY           SKY/WX    TMP DP  RH WIND       PRES   REMARKS
ARKADELPHIA    CLOUDY    74  71  91 VRB3      29.95S
CAMDEN         CLOUDY    73  68  83 SE6       29.95S
TEXARKANA      CLOUDY    73  72  96 SE10      29.92F
EL DORADO      CLOUDY    74  71  91 SE8       29.95S
DE QUEEN       CLOUDY    73  73 100 SE5       29.90S
$$

ARZ056-057-069-291400-
SOUTHEAST ARKANSAS

CITY           SKY/WX    TMP DP  RH WIND       PRES   REMARKS
PINE BLUFF     CLOUDY    74  71  91 S8        29.97S
STUTTGART      CLOUDY    75  61  60 S13       29.98S
MONTICELLO     PTSUNNY   75  71  87 SE7       29.97F

$$






USA.gov is the U.S. government's official web portal to all federal, state and local government web resources and services.